sat.trackr.live / text

‹ back to catalog

INTELSAT 34 (IS-34)

NORAD 40874 · 2015-039A

PAYLOAD ACTIVE UNKNOWN

§ Identity

Operator
Country
ITSO
Launch date
2015-08-20
Launch site
FRGUI
Launch vehicle
Mass (kg)
RCS (m²)
16.57

Purposes: comms

External: N2YO · Heavens-Above · Gunter

§ Orbital elements

Epoch: 2026-09-10T01:45:57.246336Z

Period
1,436.18 min
Inclination
0.0142°
Eccentricity
0.0000421
Mean motion
1.00266052 rev/d
Perigee alt
35,786.4 km
Apogee alt
35,790.0 km
Semi-major
42,166.3 km
B*
0.0000e+0
RAAN
146.3521°
Arg perigee
247.6517°
Mean anomaly
286.0853°
Rev number
4,048

§ Raw data

INTELSAT 34 (IS-34)1 40874U 15039A   26253.07357924  .00000000  00000+0  00000+0 0  99942 40874   0.0142 146.3521 0000421 247.6517 286.0853  1.00266052 40483

JSON: /api/v1/satellites/40874 · /tle

For live sub-satellite position, see the globe view (requires WebGL).

§ Visibility from observer

Set your observer location to see the next 7 days of passes ≥ 10°. The values pass through the URL so the page stays shareable.

No JS? Fill the form by hand. The geolocation button needs JavaScript.